[[{"header":{"parameterUnit":"m.s-1","parameterCategory":1,"la1":30.2991,"la2":30.254,"lo1":-89.0895,"lo2":-89.0444,"dy":0.0017,"dx":0.0017,"nx":28,"ny":28,"refTime":"2023-08-02T09:00:00:Z","depth":0,"parameterNumber":2,"parameterNumberName":"U-component_of_WINDS"},"data":[0,0,0,0,0,0,0,0,0,0,0,0,0,0,0,0,0,0,0,0,0,0,0,0,0,0,0,0,0,0,0,0,0,0,0,0,0,0,0,0,0,0,0,0,0,0,0,0,0,0,0,0,0,0,0,0,0,0,-0.3973,-0.3972,0,-0.3865,-0.3864,-0.3863,-0.3805,-0.3805,-0.3804,-0.3804,-0.3693,-0.3691,-0.3688,0,0,0,0,0,0,0,0,0,0,0,0,0,-0.413,-0.4127,-0.3973,-0.3972,-0.397,-0.3865,-0.3864,-0.3862,-0.3805,-0.3805,-0.3804,-0.3804,-0.3694,-0.3691,-0.3687,0,0,0,0,0,0,0,0,0,0,0,0,0,-0.4046,-0.4126,-0.3973,-0.3929,-0.3924,-0.3866,-0.3864,-0.3862,-0.3805,-0.3805,-0.3804,-0.3804,-0.3695,-0.3691,-0.3687,-0.3664,0,0,-0.3674,-0.3672,0,0,0,0,0,0,0,0,-0.4051,-0.404,-0.3937,-0.3932,-0.3926,-0.3848,-0.3878,-0.3796,-0.3805,-0.385,-0.3804,-0.3804,-0.3745,-0.3737,-0.3717,-0.3659,-0.3654,-0.3674,-0.3671,-0.3669,-0.3668,0,0,0,0,0,0,0,-0.4056,-0.4044,-0.393,-0.3935,-0.3929,-0.3915,-0.3902,-0.3862,-0.38,-0.3846,-0.3842,-0.383,-0.3742,-0.3721,-0.3714,-0.3653,-0.3674,-0.367,-0.3667,-0.3666,-0.3573,-0.3573,0,0,0,0,0,0,-0.4069,-0.405,-0.3934,-0.3927,-0.3989,-0.3912,-0.3898,-0.3873,-0.38,-0.3789,-0.383,-0.3827,-0.3728,-0.3719,-0.371,-0.3679,-0.3669,-0.3665,-0.3663,-0.3572,-0.3573,-0.3573,0,0,0,0,0,0,-0.4073,-0.406,-0.3938,-0.3987,-0.3971,-0.3909,-0.3882,-0.3871,-0.385,-0.3788,-0.3776,-0.382,-0.3728,-0.3716,-0.3676,-0.3674,-0.3663,-0.3659,-0.3572,-0.3572,-0.3573,-0.3617,0,0,0,0,0,0,-0.4078,-0.4061,-0.4052,-0.3987,-0.3968,-0.3907,-0.3882,-0.3869,-0.3843,-0.3839,-0.3776,-0.3765,-0.3727,-0.3683,-0.3672,-0.3668,-0.3656,-0.3572,-0.3572,-0.3573,-0.3616,-0.3619,-0.3622,0,0,0,0,0,-0.4083,-0.4068,-0.4052,-0.4038,-0.3955,-0.3907,-0.3896,-0.3852,-0.3843,-0.3833,-0.3794,-0.3767,-0.3676,-0.368,-0.3667,-0.3662,-0.3572,-0.3572,-0.3573,-0.3614,-0.3618,-0.3622,0,0,0,0,0,0,-0.4134,-0.4059,-0.404,-0.4003,-0.3962,-0.3897,-0.3883,-0.3858,-0.3818,-0.3815,-0.3763,-0.3749,-0.3715,-0.3684,-0.3689,-0.3636,-0.3622,-0.3619,-0.3658,-0.3661,-0.3664,-0.3672,-0.3653,0,0,0,0,0,-0.4141,-0.4108,-0.4044,-0.4018,-0.3998,-0.3945,-0.3922,-0.3892,-0.3847,-0.3829,-0.3786,-0.3744,-0.3706,-0.3682,-0.3643,-0.3611,-0.3597,-0.3601,-0.3605,-0.3607,-0.3606,-0.3588,-0.3589,-0.3573,-0.3573,-0.3573,0,0,-0.4154,-0.411,-0.4092,-0.4027,-0.3991,-0.3959,-0.393,-0.3896,-0.3872,-0.3824,-0.3785,-0.3752,-0.3701,-0.3666,-0.3648,-0.3639,-0.3607,-0.3607,-0.361,-0.3607,-0.3588,-0.3589,-0.3591,-0.3573,-0.3573,-0.3573,0,0,-0.4163,-0.4125,-0.41,-0.4065,-0.4012,-0.3976,-0.3971,-0.391,-0.3886,-0.3846,-0.381,-0.378,-0.3715,-0.3681,-0.3655,-0.3652,-0.3626,-0.3641,-0.3656,-0.3639,-0.364,-0.3641,-0.3641,-0.3641,-0.364,-0.364,-0.364,0,-0.4187,-0.4135,-0.409,-0.4059,-0.4032,-0.3988,-0.3962,-0.393,-0.3867,-0.385,-0.3841,-0.376,-0.3722,-0.3678,-0.3678,-0.3658,-0.365,-0.3647,-0.3644,-0.3644,-0.3644,-0.3643,-0.3643,-0.3642,-0.3642,-0.3641,-0.3641,0,-0.4168,-0.4133,-0.4119,-0.406,-0.4031,-0.4003,-0.3953,-0.393,-0.3903,-0.3869,-0.3829,-0.3783,-0.3735,-0.3722,-0.3695,-0.3675,-0.3671,-0.3654,-0.3638,-0.3649,-0.3647,-0.3646,-0.3645,-0.3644,-0.3644,-0.3643,0,0,-0.4204,-0.4121,-0.4116,-0.4089,-0.4028,-0.4,-0.3971,-0.3924,-0.3905,-0.3863,-0.3837,-0.3784,-0.3768,-0.3739,-0.3708,-0.3693,-0.3695,-0.3677,-0.3675,-0.3682,-0.367,-0.3684,-0.3684,-0.3677,-0.3677,-0.3677,-0.3675,0,-0.4204,-0.4147,-0.4106,-0.4066,-0.4034,-0.3993,-0.3967,-0.3927,-0.3894,-0.3862,-0.3826,-0.379,-0.3771,-0.3753,-0.3737,-0.3698,-0.3691,-0.3697,-0.3653,-0.3652,-0.3667,-0.3683,-0.3697,-0.3697,-0.3674,-0.3673,-0.3673,0,-0.4195,-0.4156,-0.4113,-0.4056,-0.4041,-0.4018,-0.3973,-0.3943,-0.3897,-0.3874,-0.3842,-0.3811,-0.3778,-0.3766,-0.372,-0.3725,-0.3704,-0.3683,-0.3682,-0.3676,-0.3663,-0.3678,-0.3696,-0.3697,-0.3672,-0.3672,-0.3672,0,-0.4227,-0.4163,-0.4129,-0.4107,-0.4039,-0.4025,-0.3996,-0.395,-0.3925,-0.3885,-0.3869,-0.3826,-0.3802,-0.377,-0.3728,-0.3723,-0.3687,-0.3671,-0.3668,-0.3669,-0.3662,-0.3663,-0.3677,-0.3649,-0.3649,-0.3649,-0.3649,0,-0.4231,-0.4206,-0.4142,-0.4121,-0.4093,-0.4046,-0.4019,-0.3987,-0.3947,-0.3919,-0.3881,-0.3856,-0.3802,-0.3771,-0.3738,-0.3705,-0.3695,-0.3676,-0.3668,-0.368,-0.3682,-0.3665,-0.3664,-0.3648,-0.3648,-0.3648,-0.3649,0,-0.4261,-0.4217,-0.4177,-0.4117,-0.4101,-0.4083,-0.4032,-0.401,-0.3976,-0.3942,-0.3931,-0.3878,-0.384,-0.3795,-0.3741,-0.3719,-0.3689,-0.3677,-0.3705,-0.37,-0.37,-0.3701,-0.3704,-0.3703,-0.3675,-0.3676,-0.3676,0,-0.4266,-0.4246,-0.4185,-0.4164,-0.4136,-0.4102,-0.4077,-0.4031,-0.4006,-0.3953,-0.3938,-0.3897,-0.3861,-0.3801,-0.3758,-0.3717,-0.3703,-0.3707,-0.3697,-0.371,-0.3704,-0.3706,-0.3704,-0.371,-0.3711,-0.3711,-0.3712,0,-0.4281,-0.4261,-0.4225,-0.4183,-0.4153,-0.4118,-0.408,-0.4065,-0.4012,-0.3986,-0.3946,-0.3919,-0.3865,-0.3824,-0.3778,-0.3749,-0.3722,-0.3716,-0.3713,-0.3725,-0.3742,-0.3733,-0.3713,-0.3715,-0.3715,-0.3715,-0.3715,-0.3714,-0.4299,-0.428,-0.4234,-0.4196,-0.4163,-0.4129,-0.4106,-0.407,-0.4036,-0.3989,-0.3963,-0.3925,-0.388,-0.3816,-0.3787,-0.3756,-0.3747,-0.3743,-0.3742,-0.3742,-0.3745,-0.3747,-0.3748,-0.3748,-0.3748,-0.3747,-0.3747,0,-0.4312,-0.4281,-0.4246,-0.4196,-0.4166,-0.4143,-0.4101,-0.4078,-0.4045,-0.4005,-0.3971,-0.3926,-0.3887,-0.3842,-0.38,-0.3784,-0.3771,-0.3775,-0.3775,-0.3769,-0.3756,-0.3763,-0.3786,-0.3786,-0.3786,-0.3786,-0.3786,-0.3786,-0.4316,-0.4282,-0.4256,-0.4207,-0.4175,-0.4137,-0.4115,-0.4084,-0.4052,-0.4004,-0.3972,-0.3942,-0.39,-0.3855,-0.3819,-0.3806,-0.3793,-0.3801,-0.3785,-0.3773,-0.377,-0.3767,-0.3773,-0.3798,-0.3798,-0.3801,-0.3801,-0.3801]},{"header":{"parameterUnit":"m.s-1","parameterCategory":1,"la1":30.2991,"la2":30.254,"lo1":-89.0895,"lo2":-89.0444,"dy":0.0017,"dx":0.0017,"nx":28,"ny":28,"refTime":"2023-08-02T09:00:00:Z","depth":0,"parameterNumber":3,"parameterNumberName":"V-component_of_WINDS"},"data":[0,0,0,0,0,0,0,0,0,0,0,0,0,0,0,0,0,0,0,0,0,0,0,0,0,0,0,0,0,0,0,0,0,0,0,0,0,0,0,0,0,0,0,0,0,0,0,0,0,0,0,0,0,0,0,0,0,0,4.6822,4.6822,0,4.6801,4.6801,4.6801,4.68,4.6801,4.6801,4.6801,4.6775,4.6774,4.6773,0,0,0,0,0,0,0,0,0,0,0,0,0,4.686,4.6859,4.6822,4.6822,4.6822,4.6801,4.6801,4.6801,4.68,4.6801,4.6801,4.6801,4.6776,4.6774,4.6773,0,0,0,0,0,0,0,0,0,0,0,0,0,4.6841,4.6859,4.6822,4.6819,4.6819,4.6801,4.6801,4.6801,4.68,4.6801,4.6801,4.6802,4.6776,4.6775,4.6773,4.6756,0,0,4.6769,4.6768,0,0,0,0,0,0,0,0,4.6842,4.684,4.682,4.682,4.6819,4.6804,4.6804,4.6785,4.68,4.6807,4.6801,4.6802,4.6784,4.6782,4.6777,4.6755,4.6753,4.6769,4.6768,4.6767,4.6767,0,0,0,0,0,0,0,4.6844,4.6841,4.6814,4.682,4.6819,4.6818,4.6816,4.6801,4.6793,4.6807,4.6807,4.6804,4.6784,4.6778,4.6776,4.6753,4.6769,4.6767,4.6766,4.6766,4.6716,4.6715,0,0,0,0,0,0,4.6846,4.6842,4.6814,4.6813,4.6832,4.6817,4.6815,4.6808,4.6794,4.6792,4.6804,4.6804,4.6781,4.6778,4.6775,4.6754,4.6767,4.6766,4.6765,4.6716,4.6716,4.6715,0,0,0,0,0,0,4.6847,4.6844,4.6815,4.6828,4.6824,4.6816,4.6809,4.6808,4.6802,4.6792,4.679,4.68,4.6781,4.6777,4.6761,4.6754,4.6765,4.6764,4.6717,4.6716,4.6715,4.6712,0,0,0,0,0,0,4.6848,4.6844,4.6838,4.6827,4.6823,4.6802,4.6808,4.6807,4.68,4.6801,4.6787,4.6786,4.6781,4.6763,4.676,4.6752,4.6763,4.6717,4.6717,4.6716,4.6713,4.6711,4.671,0,0,0,0,0,4.6849,4.6837,4.6837,4.6834,4.6816,4.6802,4.6799,4.6795,4.68,4.6793,4.6787,4.6786,4.6755,4.6762,4.6758,4.6749,4.6718,4.6717,4.6716,4.6713,4.6712,4.671,0,0,0,0,0,0,4.6844,4.6835,4.6836,4.682,4.6812,4.6802,4.6793,4.6794,4.6783,4.6783,4.6778,4.6775,4.6759,4.6752,4.676,4.6732,4.6737,4.6735,4.6736,4.6735,4.6733,4.6735,4.6761,0,0,0,0,0,4.6842,4.6832,4.6824,4.6811,4.6807,4.6801,4.6795,4.6793,4.6784,4.678,4.6772,4.6762,4.675,4.6742,4.6731,4.6712,4.6709,4.6705,4.6703,4.6702,4.67,4.669,4.6688,4.6712,4.6712,4.6712,0,0,4.6835,4.6829,4.6823,4.681,4.6803,4.6793,4.6798,4.6786,4.6778,4.6777,4.6762,4.6756,4.6744,4.6727,4.6719,4.6721,4.6693,4.6701,4.67,4.6699,4.6689,4.6687,4.6685,4.6711,4.6711,4.6711,0,0,4.6819,4.6813,4.6802,4.6796,4.6787,4.6783,4.678,4.6771,4.6767,4.6752,4.6752,4.6741,4.6721,4.6713,4.6706,4.6689,4.6688,4.6685,4.6677,4.6668,4.6666,4.6664,4.6658,4.6655,4.6683,4.6683,4.6683,0,4.6811,4.6797,4.6795,4.6784,4.6778,4.6779,4.6767,4.6761,4.6748,4.6743,4.6746,4.6722,4.6714,4.6695,4.6691,4.6686,4.6682,4.6686,4.6667,4.6665,4.6663,4.6657,4.6654,4.6683,4.6683,4.6683,4.6683,0,4.6789,4.6778,4.677,4.676,4.6753,4.6741,4.6737,4.673,4.6729,4.6725,4.6709,4.6701,4.6688,4.6683,4.6681,4.6664,4.6666,4.6668,4.6673,4.6661,4.6655,4.6652,4.6683,4.6683,4.6683,4.6683,0,0,4.6766,4.6757,4.6754,4.6749,4.674,4.6731,4.672,4.6709,4.6703,4.6694,4.6684,4.6668,4.667,4.6663,4.666,4.6652,4.6638,4.6655,4.6655,4.6652,4.6619,4.6617,4.6614,4.6638,4.6638,4.6638,4.662,0,4.6748,4.6729,4.6728,4.671,4.6701,4.6703,4.6693,4.6685,4.6682,4.6672,4.6668,4.6656,4.666,4.6656,4.6648,4.6642,4.6632,4.6643,4.6628,4.6627,4.663,4.6611,4.6608,4.6592,4.6617,4.6617,4.6617,0,4.6724,4.6717,4.6699,4.6692,4.6688,4.6679,4.6669,4.6661,4.6653,4.665,4.6643,4.6642,4.663,4.6636,4.6619,4.6627,4.662,4.6617,4.6616,4.6613,4.662,4.6607,4.6586,4.6584,4.6613,4.6613,4.6613,0,4.6709,4.6695,4.6682,4.6678,4.667,4.6664,4.666,4.6653,4.6647,4.6638,4.6634,4.6623,4.6617,4.6608,4.6604,4.661,4.6587,4.6593,4.6584,4.6584,4.6578,4.6578,4.6555,4.6575,4.6575,4.6576,4.6576,0,4.6689,4.6677,4.6676,4.6668,4.6655,4.6654,4.6641,4.6638,4.6631,4.6622,4.6623,4.6614,4.661,4.66,4.6597,4.6583,4.658,4.6577,4.6576,4.6576,4.6577,4.6571,4.6572,4.6575,4.6575,4.6575,4.6575,0,4.6669,4.6668,4.6654,4.6649,4.6647,4.6638,4.6632,4.6624,4.6622,4.661,4.6607,4.6602,4.6591,4.6587,4.6572,4.657,4.6554,4.6554,4.6557,4.6556,4.6547,4.6548,4.6519,4.6515,4.6539,4.6539,4.6539,0,4.6656,4.6647,4.6642,4.6636,4.6633,4.6624,4.6618,4.6617,4.6611,4.6602,4.6595,4.6584,4.6576,4.6558,4.6552,4.6541,4.6541,4.6532,4.6539,4.654,4.654,4.654,4.6539,4.653,4.6529,4.6529,4.6529,0,4.6632,4.6632,4.6625,4.6617,4.6611,4.6604,4.6598,4.6593,4.6591,4.6584,4.6574,4.6567,4.6554,4.6543,4.6532,4.6527,4.6527,4.6527,4.6524,4.6524,4.6526,4.6524,4.6552,4.6527,4.6527,4.6528,4.6528,4.6528,4.6615,4.6607,4.6603,4.6594,4.659,4.6585,4.6577,4.6574,4.6566,4.6556,4.6556,4.6544,4.6537,4.6523,4.6518,4.6508,4.651,4.6506,4.6505,4.6504,4.6503,4.6529,4.6506,4.6506,4.6506,4.6506,4.6506,0,4.659,4.6588,4.658,4.6573,4.6566,4.6569,4.6563,4.6557,4.6547,4.6541,4.6533,4.6521,4.6511,4.6506,4.6495,4.6489,4.6489,4.6486,4.6486,4.6485,4.6502,4.6505,4.6486,4.6486,4.6486,4.6486,4.6486,4.6486,4.6577,4.6565,4.6565,4.6551,4.6548,4.6538,4.6534,4.6529,4.6524,4.6511,4.6504,4.6501,4.6495,4.6485,4.6475,4.6474,4.647,4.6467,4.6465,4.6481,4.6483,4.6485,4.6488,4.6466,4.6466,4.6448,4.6448,4.6448]}]]